Location: Brusselsch Zeekanaal
(50.8667°N, 4.3667°E)
Time: 01:51:49
(UTC+00:00)

Cosmos 2333 Rocket - Pass Details

Date: 08 November 2025
Orbit: 837 x 865 km, 70.8° (Epoch: 15 December)

Event Time Altitude Azimuth Distance (km) Brightness Sun altitude
Exits shadow 05:21:32 15° 307° (NW) 2,138 3.8 -13.6°
Maximum altitude 05:23:23 18° 330° (NNW) 2,015 3.8 -13.3°
Drops below altitude 10° 05:27:10 10° 12° (NNE) 2,510 4.7 -12.7°
Sets 05:30:33 0° 31° (NNE) 3,454 5.7 -12.2°
